Location: Unspecified
(42.9300°N, 71.1866°W)
Time: 11:03:34
(UTC-04:00)

Envisat - Visible Passes

Search period start: 30 May 2016 00:00
Search period end: 09 June 2016 00:00
Orbit: 764 x 766 km, 98.3° (Epoch: 30 May)

Date Brightness Start Highest point End Pass type
(mag) Time Alt. Az. Time Alt. Az. Time Alt. Az.
30 May 4.1 21:54:45 10° SSW 21:59:30 41° W 22:04:19 10° NNW visible
31 May 3.0 21:17:40 10° SSE 21:22:45 89° WSW 21:27:52 10° NNW visible
31 May 5.7 23:01:42 10° W 23:02:28 10° W 23:03:14 10° WNW visible
01 Jun 4.9 22:21:20 10° SSW 22:25:22 24° W 22:29:25 10° NW visible
02 Jun 3.7 21:43:32 10° S 21:48:28 51° W 21:53:25 10° NNW visible
03 Jun 3.0 21:06:43 10° SSE 21:11:46 74° ENE 21:16:51 10° N visible
03 Jun 5.5 22:48:51 10° WSW 22:51:20 13° W 22:53:48 10° WNW visible
04 Jun 4.6 22:09:53 10° SSW 22:14:17 29° W 22:18:43 10° NW visible
05 Jun 3.3 21:32:25 10° S 21:37:26 65° WSW 21:42:30 10° NNW visible
06 Jun 3.2 20:55:50 10° SSE 21:00:48 58° ENE 21:05:48 10° N visible
06 Jun 5.3 22:36:54 10° SW 22:40:12 17° W 22:43:30 10° NW visible
07 Jun 4.2 21:58:32 10° SSW 22:03:13 37° W 22:07:55 10° NNW visible
08 Jun 3.1 21:21:21 10° SSE 21:26:26 82° WSW 21:31:33 10° NNW visible
